7 * 24
多渠道服务支持
STARLINK-11341是美国SpaceX公司星链(Starlink)卫星互联网项目中的一颗卫星,于2024年10月30日发射,属于SpaceX在2024年完成的高频次发射任务之一。星链项目计划部署数万颗低轨卫星,为全球偏远、网络基础设施不足的地区提供高速低延迟的互联网接入服务,部分最新批次卫星配备了直连手机的Direct-to-Cell技术,可直接为普通终端设备提供通信信号,助力全球数字化覆盖,也进一步巩固了SpaceX在商业航天领域的领先地位。
美国
(US)
| 数据来源 | 国际轨道数据 |
| 星历时间: | 2026-07-27T06:06:14+0800 1天前 查看轨道信息 |
| 半长轴: | 6738.111km |
| 偏心率: | 0.0001249 |
| 轨道倾角: | 53.159° |
| 近地点辐角 | 44.383° |
| 升交点赤经 | 59.740° |
| 平近点角 | 315.729° |
| 近地点: | 359.132km |
| 远地点: | 360.816km |
| 周期: | 91.742分钟 |
| 每日圈数: | 15.696237 |